Weather History for PAWD - December, 2013

Change the Weather History Date:

Wednesday, December 11, 2013

  Actual Average Record
Temperature  
Mean Temperature 26 °F -  
Max Temperature 32 °F 31 °F 43 °F (1962)
Min Temperature 21 °F 21 °F -4 °F (1964)
Degree Days  
Heating Degree Days 38    
Moisture  
Dew Point 13 °F    
Average Humidity 56    
Maximum Humidity 76    
Minimum Humidity 44    
Precipitation  
Precipitation 0.01 in - - ()
Sea Level Pressure  
Sea Level Pressure 29.46 in    
Wind  
Wind Speed 21 mph (North)    
Max Wind Speed 29 mph    
Max Gust Speed 45 mph    
Visibility 10 miles    
Events      
Averages and records for this station are not official NWS values.
T = Trace of Precipitation, MM = Missing Value Source: NWS Daily Summary

Daily Weather History Graph

Daily Weather History Graph

Search for Another Location

Airport or City:

Trip Planner

Search our weather history database for the weather conditions in past years. The results will help you decide how hot, cold, wet, or windy it might be!

Date:

Astronomy

Dec. 11, 2013 Rise Set
Actual Time 9:51 AM AKST 3:50 PM AKST
Civil Twilight 8:54 AM AKST 4:47 PM AKST
Nautical Twilight 7:57 AM AKST 5:44 PM AKST
Astronomical Twilight 7:06 AM AKST 6:35 PM AKST
Moon 1:38 PM AKST (12/11) 3:07 AM AKST (12/11)
Length of Visible Light 7h 53m
Length of Day
5h 58m
Waxing Gibbous, 73% of the Moon is Illuminated
Dec 11
Waxing Gibbous
Dec 17
Full
Dec 25
Last Quarter
Jan 1
New
Jan 7
First Quarter

Hourly Weather History & Observations

Time (AKST) Temp. Windchill Dew Point Humidity Pressure Visibility Wind Dir Wind Speed Gust Speed Precip Events Conditions
12:53 AM 32.0 °F 19.2 °F 25.0 °F 75% 29.66 in 10.0 mi North 23.0 mph 34.5 mph N/A   Clear
1:53 AM 32.0 °F 19.5 °F 25.0 °F 75% 29.64 in 10.0 mi North 21.9 mph 32.2 mph N/A   Clear
3:53 AM 30.9 °F 17.8 °F 24.1 °F 76% 29.58 in 10.0 mi North 23.0 mph 32.2 mph N/A   Scattered Clouds
4:53 AM 30.9 °F 17.2 °F 21.9 °F 69% 29.55 in 10.0 mi NNW 25.3 mph 35.7 mph N/A   Partly Cloudy
5:53 AM 28.9 °F 13.7 °F 21.9 °F 75% 29.53 in 10.0 mi North 28.8 mph 39.1 mph N/A   Partly Cloudy
6:53 AM 28.9 °F 14.0 °F 21.0 °F 72% 29.50 in 10.0 mi North 27.6 mph 38.0 mph N/A   Partly Cloudy
7:53 AM 28.9 °F 14.3 °F 18.0 °F 64% 29.48 in 10.0 mi NNW 26.5 mph 35.7 mph N/A   Partly Cloudy
8:53 AM 28.0 °F 13.0 °F 15.1 °F 58% 29.47 in 10.0 mi North 26.5 mph 44.9 mph 0.01 in   Partly Cloudy
9:53 AM 28.0 °F 14.9 °F 12.0 °F 51% 29.47 in 10.0 mi NNW 19.6 mph 42.6 mph N/A   Clear
10:53 AM 27.0 °F 12.8 °F 12.9 °F 56% 29.47 in 10.0 mi North 21.9 mph 32.2 mph N/A   Clear
11:53 AM 27.0 °F 13.2 °F 12.0 °F 53% 29.46 in 10.0 mi North 20.7 mph 27.6 mph N/A   Clear
12:53 PM 28.0 °F 15.7 °F 9.0 °F 45% 29.43 in 10.0 mi North 17.3 mph 29.9 mph N/A   Clear
1:53 PM 27.0 °F 15.6 °F 10.0 °F 49% 29.43 in 10.0 mi NNE 13.8 mph 25.3 mph N/A   Clear
2:53 PM 26.1 °F 13.1 °F 8.1 °F 47% 29.43 in 10.0 mi NNW 17.3 mph 25.3 mph N/A   Clear
3:53 PM 25.0 °F 12.6 °F 8.1 °F 49% 29.41 in 10.0 mi NNE 15.0 mph 23.0 mph N/A   Clear
4:53 PM 25.0 °F 10.9 °F 6.1 °F 45% 29.40 in 10.0 mi North 19.6 mph 28.8 mph N/A   Clear
5:53 PM 24.1 °F 11.5 °F 7.0 °F 48% 29.40 in 10.0 mi North 15.0 mph 24.2 mph N/A   Clear
6:53 PM 23.0 °F 11.1 °F 7.0 °F 50% 29.39 in 10.0 mi North 12.7 mph 25.3 mph N/A   Clear
7:53 PM 23.0 °F 9.6 °F 6.1 °F 48% 29.39 in 10.0 mi NNE 16.1 mph 23.0 mph N/A   Clear
8:53 PM 23.0 °F 10.6 °F 5.0 °F 46% 29.38 in 10.0 mi North 13.8 mph 20.7 mph N/A   Clear
9:53 PM 23.0 °F 9.2 °F 3.9 °F 44% 29.38 in 10.0 mi NNW 17.3 mph 28.8 mph N/A   Clear
10:53 PM 21.9 °F 11.0 °F 5.0 °F 48% 29.39 in 10.0 mi North 10.4 mph 28.8 mph N/A   Clear
11:53 PM 21.9 °F 8.7 °F 5.0 °F 48% 29.39 in 10.0 mi North 15.0 mph 25.3 mph N/A   Clear